Location: Antin
(43.3330°N, 0.2804°E)
Time: 05:05:55
(UTC+00:00)

Cosmos 1607 - Pass Details

Date: 16 October 2021
Orbit: 918 x 984 km, 65.0° (Epoch: 02 December)

Event Time Altitude Azimuth Distance (km) Brightness Sun altitude
Rises 17:38:43 0° 329° (NNW) 3,665 7.3 -5.3°
Reaches altitude 10° 17:41:29 10° 337° (NNW) 2,705 6.6 -5.8°
Maximum altitude 17:47:24 40° 46° (NE) 1,376 4.5 -6.8°
Drops below altitude 10° 17:53:10 10° 114° (ESE) 2,649 5.8 -7.9°
Enters shadow 17:54:59 - 120° (ESE) 3,273 6.3 -8.2°
